User: anonymous   Login
Location: Albany
(35.0000°S, 118.0000°E)
Time: 23:55:13
(UTC-05:00)
Language:

Cosmos 1758 Rocket - Orbit

View from above orbital plane
View from above orbital plane
View from above satellite
View from above satellite

Ground track
Ground track

The orbit data is extracted from the following two-line orbital elements,

1 16792U 86046B   16344.55612809  .00000130  00000-0  12967-4 0  9996
2 16792  82.4829  20.8386 0023894 193.9975 326.6989 14.83106765646770
Epoch (UTC): 09 December 2016 13:20:49
Eccentricity: 0.0023894
inclination: 82.4829°
perigee height: 603 km
apogee height: 636 km
right ascension of ascending node: 20.8386°
argument of perigee: 193.9975°
revolutions per day: 14.83106765
mean anomaly at epoch: 326.6989°
orbit number at epoch: 64677

The dashed part of the orbit path shows where the satellite is in the earth's shadow,  

DLR